Date,TemperatureHighF,TemperatureAvgF,TemperatureLowF,DewpointHighF,DewpointAvgF,DewpointLowF,HumidityHigh,HumidityAvg,HumidityLow,PressureMaxIn,PressureMinIn,WindSpeedMaxMPH,WindSpeedAvgMPH,GustSpeedMaxMPH,PrecipitationSumIn
2013-1-1,32.9,23.6,13.6,24.6,9.6,-0.3,71,55,43,30.09,29.92,8,3,15,0.00
2013-1-2,25.7,20.9,16.5,12.2,8.9,4.5,63,59,55,30.22,30.03,4,2,11,0.00
2013-1-3,31.1,24.3,16.0,22.1,14.8,4.4,74,67,59,30.21,29.99,7,2,18,0.00
2013-1-4,33.4,29.6,25.3,23.3,19.7,14.5,69,66,61,30.10,29.91,12,6,28,0.00
2013-1-5,35.8,30.7,27.3,25.2,21.4,18.0,73,68,64,30.32,30.06,6,3,14,0.01
2013-1-6,36.1,35.0,32.7,30.0,28.7,24.5,80,78,65,30.16,29.91,6,4,20,0.05
2013-1-7,34.5,30.2,25.5,26.0,20.9,16.3,77,68,63,30.42,30.16,10,4,21,0.00
2013-1-8,37.9,33.5,29.7,29.7,25.4,22.8,79,72,68,30.33,30.17,10,4,20,0.00
2013-1-9,43.3,37.0,29.5,34.1,28.4,22.6,75,71,62,30.41,30.00,12,4,32,0.01
2013-1-10,40.1,35.6,31.3,27.7,25.1,22.7,72,65,59,30.62,30.39,4,1,10,0.00
2013-1-11,48.4,42.1,34.7,42.7,34.3,23.9,85,74,61,30.39,29.89,5,2,13,0.04
2013-1-12,57.4,50.5,45.1,49.0,44.9,40.9,86,81,73,30.03,29.95,9,2,21,0.00
2013-1-13,60.4,52.4,44.6,56.2,48.2,40.4,93,86,78,29.98,29.77,9,2,20,0.52
2013-1-14,44.8,33.2,27.1,41.4,24.9,16.7,89,71,61,30.42,29.81,8,3,24,0.06
2013-1-15,30.9,28.3,25.5,19.7,18.0,15.9,70,65,54,30.44,30.18,4,1,8,0.00
2013-1-16,37.9,32.4,28.2,28.2,22.4,16.9,70,66,60,30.19,29.81,8,2,17,0.00
2013-1-17,34.5,25.5,16.9,24.7,14.0,6.9,70,61,54,30.21,29.89,6,4,16,0.00
2013-1-18,34.0,21.8,12.7,20.4,9.4,1.6,66,58,49,30.46,30.03,10,3,24,0.00
2013-1-19,45.9,40.4,33.8,30.9,26.8,19.4,66,58,47,30.04,29.58,11,6,26,0.02
2013-1-20,45.9,29.5,18.1,33.5,14.1,2.7,70,52,40,30.13,29.51,12,7,34,0.02
2013-1-21,22.8,18.5,11.7,9.9,2.7,-5.5,62,49,42,30.11,29.89,6,2,16,0.00
2013-1-22,14.0,9.2,5.9,-5.5,-10.1,-14.4,45,40,31,30.22,29.95,7,4,24,0.00
2013-1-23,17.8,11.8,6.1,-2.7,-7.3,-11.8,50,41,31,30.25,30.11,4,2,11,0.00
2013-1-24,15.4,12.5,5.7,5.3,-2.9,-11.1,68,50,41,30.55,30.11,8,2,16,0.00
2013-1-25,20.8,14.2,5.5,6.3,0.3,-10.2,61,53,47,30.53,30.09,3,1,10,0.00
2013-1-26,28.0,19.2,11.5,14.5,7.2,0.4,63,59,50,30.43,30.11,4,1,9,0.00
2013-1-27,29.5,21.6,12.2,16.2,9.9,1.8,70,60,53,30.57,30.34,3,0,8,0.00
2013-1-28,40.8,34.7,26.1,38.4,29.1,13.0,92,80,55,30.33,29.86,6,2,14,0.15
2013-1-29,52.0,41.4,34.5,49.4,38.3,30.5,92,89,85,30.07,29.71,4,1,11,0.72
2013-1-30,60.6,54.5,49.6,52.2,48.8,45.2,92,81,68,29.71,29.09,10,4,101,0.35
2013-1-31,49.5,29.1,21.6,46.1,17.8,4.7,88,63,40,29.76,29.10,10,4,27,0.07
2013-2-1,24.4,19.9,16.0,11.0,7.9,1.4,68,59,50,30.21,29.76,9,4,18,0.00
2013-2-2,23.2,19.4,14.7,14.3,8.8,-0.5,73,63,50,30.20,29.98,6,2,17,0.00
2013-2-3,27.1,17.0,4.8,14.4,5.7,-6.4,72,61,51,29.99,29.82,3,1,9,0.00
2013-2-4,24.1,16.9,10.9,8.5,3.9,-1.0,61,56,49,30.00,29.91,4,2,14,0.00
2013-2-5,29.5,21.5,10.8,16.3,10.2,-1.0,68,61,49,29.97,29.85,4,1,17,0.00
2013-2-6,27.0,23.1,14.7,18.2,9.8,2.9,70,57,45,30.38,29.90,10,3,18,0.00
2013-2-7,32.0,24.9,14.7,16.2,12.7,-18.3,70,60,10,30.38,30.07,8,3,73,0.00
2013-2-8,32.5,25.0,10.8,27.7,17.4,-34.9,84,74,10,30.18,29.81,11,4,18,0.00
2013-2-9,25.3,17.8,8.8,13.8,8.0,-2.5,72,65,58,30.43,30.18,7,2,42,0.00
2013-2-10,38.3,23.5,5.9,23.7,11.1,-4.2,72,59,41,30.41,29.94,6,1,11,0.00
2013-2-11,45.9,37.9,33.8,39.0,28.5,23.1,86,69,55,29.94,29.62,10,5,27,0.22
2013-2-12,35.6,32.9,30.6,25.1,22.8,-15.8,71,66,10,30.00,29.76,7,4,19,0.00
2013-2-13,37.4,30.2,21.4,23.2,18.7,11.8,71,62,50,29.93,29.77,3,1,8,0.00
2013-2-14,38.3,31.0,19.6,30.8,22.6,10.8,81,71,59,29.91,29.78,8,2,17,0.08
2013-2-15,36.1,31.0,20.3,28.7,18.7,8.7,74,61,48,30.11,29.78,8,4,19,0.00
2013-2-16,32.2,23.8,18.1,19.5,12.6,7.0,77,62,50,30.10,29.96,10,1,24,0.00
2013-2-17,21.2,16.1,12.7,15.2,1.9,-4.7,77,54,39,30.24,29.96,9,5,100,0.00
2013-2-18,34.0,20.8,5.2,18.8,5.6,-8.1,63,51,42,30.29,29.86,6,1,11,0.00
2013-2-19,40.8,33.7,23.7,35.3,23.8,12.1,85,67,53,29.87,29.58,10,5,31,0.38
2013-2-20,25.2,21.6,19.2,12.3,8.8,5.9,67,57,49,30.14,29.80,8,5,23,0.00
2013-2-21,26.8,20.6,15.8,10.0,6.8,1.8,62,54,47,30.43,30.11,9,3,18,0.00
2013-2-22,35.1,28.4,21.4,27.6,18.9,9.8,76,67,56,30.41,29.99,6,2,14,0.01
2013-2-23,38.1,33.9,28.6,30.1,25.0,19.9,74,70,59,29.99,29.90,6,2,14,0.01
2013-2-24,34.5,31.0,27.7,23.9,21.1,18.2,74,66,59,30.13,29.89,5,2,17,0.02
2013-2-25,38.7,33.2,28.0,25.8,22.5,17.5,71,65,56,30.26,30.13,3,1,7,0.00
2013-2-26,43.7,34.6,26.2,30.1,23.2,16.8,83,64,43,30.25,29.72,10,4,23,0.41
2013-2-27,35.6,34.1,33.1,30.8,29.2,28.2,83,82,81,29.74,29.61,10,2,22,0.21
2013-2-28,36.9,34.2,32.4,31.9,28.9,25.0,84,81,74,29.82,29.57,6,2,15,0.35
2013-3-1,32.4,28.2,24.6,25.0,18.5,13.7,75,67,58,30.02,29.82,8,4,15,0.00
2013-3-2,27.0,24.1,21.2,15.2,13.1,11.3,67,62,59,30.01,29.94,7,4,16,0.00
2013-3-3,28.2,23.8,20.7,14.9,12.9,10.6,73,62,51,29.98,29.91,6,4,17,0.00
2013-3-4,32.7,26.4,20.3,18.6,14.3,10.5,66,60,51,30.11,29.97,8,4,19,0.00
2013-3-5,33.3,26.8,19.9,19.5,15.8,10.5,69,63,53,30.14,29.97,8,3,15,0.00
2013-3-6,41.0,34.3,27.0,29.9,25.5,17.0,80,70,63,30.19,29.97,8,4,17,0.00
2013-3-7,38.3,34.7,31.8,30.2,27.1,23.6,80,73,59,30.32,30.17,4,2,8,0.01
2013-3-8,41.7,35.3,28.0,28.4,24.2,17.5,81,65,47,30.44,30.32,5,2,12,0.01
2013-3-9,45.0,34.6,24.6,32.0,24.6,16.4,81,67,48,30.44,30.19,4,1,8,0.00
2013-3-10,60.8,49.3,36.3,34.4,27.6,12.6,64,44,31,30.19,29.51,6,2,15,0.00
2013-3-11,61.3,51.8,45.5,40.2,30.8,27.6,81,46,29,29.97,29.65,6,2,17,0.12
2013-3-12,45.5,38.3,33.8,40.2,30.3,23.6,83,73,64,29.93,29.73,7,4,22,0.05
2013-3-13,37.4,31.6,23.2,30.2,21.2,5.2,75,65,45,30.05,29.86,13,4,30,0.06
2013-3-14,92.5,26.7,22.5,11.2,6.8,-1.3,54,43,26,30.14,30.05,13,6,30,0.00
2013-3-15,40.1,32.7,25.7,30.1,21.0,10.7,72,62,45,30.08,29.80,9,4,21,0.00
2013-3-16,121.6,27.4,21.9,17.9,13.0,9.0,62,54,46,30.02,29.87,6,3,15,0.00
2013-3-17,28.9,25.6,21.7,15.3,9.3,0.1,65,51,31,30.35,30.02,6,2,100,0.00
2013-3-18,37.0,28.5,21.2,28.7,13.9,3.2,79,55,33,30.34,29.66,8,4,17,0.01
2013-3-19,36.0,32.1,25.3,30.4,21.9,-15.3,81,66,47,29.88,29.66,8,4,21,0.08
2013-3-20,34.5,27.9,23.4,18.9,14.3,8.8,70,57,44,29.88,29.83,6,3,16,0.05
2013-3-21,32.4,26.2,19.4,22.7,14.5,9.3,71,61,47,29.87,29.75,6,3,19,0.01
2013-3-22,35.4,29.8,25.5,24.2,20.0,15.3,72,66,57,29.99,29.80,7,3,16,0.05
2013-3-23,39.2,33.7,25.3,23.5,19.6,15.3,72,57,45,30.08,29.97,11,6,19,0.01
2013-3-24,37.2,31.7,23.2,23.5,16.8,13.6,75,55,39,30.08,29.75,7,3,26,0.00
2013-3-25,42.1,36.4,32.0,28.5,23.3,19.4,70,59,45,29.79,29.65,8,4,15,0.00
2013-3-26,47.5,39.5,31.3,27.1,23.4,16.4,69,54,31,30.00,29.79,7,3,14,0.00
2013-3-27,45.3,37.0,30.7,31.2,25.9,-20.6,80,64,44,30.11,29.98,10,3,20,0.07
2013-3-28,44.8,37.9,33.3,32.2,28.9,22.4,80,71,41,30.25,30.10,6,2,12,0.04
2013-3-29,50.9,40.9,33.3,32.6,27.7,22.8,73,60,41,30.25,30.17,6,2,14,0.00
2013-3-30,52.7,39.4,27.3,30.2,22.7,17.5,75,53,32,30.25,30.04,6,2,49,0.05
2013-3-31,58.6,46.2,35.8,38.9,28.6,18.2,81,53,31,30.04,29.63,8,3,19,0.00
2013-4-1,42.8,34.9,27.5,37.5,20.4,9.4,82,57,33,30.02,29.62,11,5,24,0.05
2013-4-2,36.9,29.7,23.5,15.9,11.9,8.1,60,47,32,30.17,30.01,11,4,24,0.00
2013-4-3,36.0,30.5,26.4,14.5,10.8,4.1,54,44,27,30.43,30.17,11,5,21,0.00
2013-4-4,50.2,36.1,23.5,21.2,13.3,6.8,67,42,21,30.38,29.95,8,3,18,0.00
2013-4-5,42.3,36.5,30.7,25.5,19.3,12.6,63,50,35,30.22,29.92,9,3,20,0.00
2013-4-6,47.3,36.0,23.2,24.5,16.7,10.1,63,46,24,30.34,29.99,4,2,13,0.00
2013-4-7,67.1,53.0,41.9,43.7,30.4,14.9,61,43,26,30.09,29.73,14,6,38,0.00
2013-4-8,58.6,45.5,33.1,44.8,33.0,21.8,84,63,39,30.14,29.79,7,2,17,0.22
2013-4-9,59.5,48.6,42.6,44.4,41.8,38.0,89,78,53,30.16,29.83,5,2,17,0.44
2013-4-10,45.9,42.4,38.8,43.1,39.6,34.7,91,90,85,30.07,29.88,8,4,16,0.41
2013-4-11,39.0,34.7,32.4,35.0,29.3,24.5,86,80,61,30.13,29.89,10,5,24,0.26
2013-4-12,44.2,38.6,32.9,41.0,34.3,-20.3,91,84,77,29.91,29.53,9,4,19,0.24
2013-4-13,44.1,40.4,38.1,36.5,34.1,31.9,84,78,69,29.97,29.79,8,4,21,0.01
2013-4-14,48.2,40.9,34.2,31.9,28.0,24.7,78,60,47,30.19,29.97,11,2,14,0.00
2013-4-15,67.3,52.2,38.1,46.6,37.0,26.3,65,57,42,30.16,30.01,6,3,14,0.00
2013-4-16,61.0,55.4,46.8,54.1,45.1,32.8,86,69,57,30.27,29.98,10,4,25,0.08
2013-4-17,56.1,46.5,35.2,36.7,30.4,26.6,77,55,34,30.40,30.21,7,3,17,0.00
2013-4-18,81.1,63.3,46.6,60.1,47.6,28.4,77,57,46,30.24,29.70,8,4,22,0.00
2013-4-19,68.9,56.0,41.2,59.6,47.1,32.6,88,72,61,29.79,29.38,11,5,35,0.11
2013-4-20,41.2,36.7,33.1,34.2,26.6,-19.7,86,67,49,30.45,29.78,8,5,23,0.14
2013-4-21,44.8,36.4,26.8,26.2,20.8,13.8,74,54,39,30.70,30.45,7,2,13,0.00
2013-4-22,61.2,47.8,34.5,34.2,26.9,16.6,68,46,22,30.58,30.32,6,2,13,0.00
2013-4-23,64.9,53.9,44.4,54.8,34.0,26.7,80,48,24,30.33,29.92,24,2,36,0.00
2013-4-24,60.8,53.1,43.9,54.1,44.4,36.8,94,75,47,30.09,29.67,106,10,131,0.26
2013-4-25,55.4,45.8,33.8,42.3,37.6,26.1,94,75,41,30.34,30.09,8,5,17,0.11
2013-4-26,58.5,45.2,33.3,39.2,31.2,24.1,92,62,35,30.51,30.34,5,1,13,0.01
2013-4-27,70.0,54.7,38.1,41.6,34.4,25.1,65,48,28,30.45,30.22,9,2,74,0.00
2013-4-28,73.8,57.8,45.9,50.0,42.0,36.1,78,58,26,30.22,30.00,8,3,56,0.06
2013-4-29,63.9,57.4,52.5,54.8,50.6,46.9,84,78,69,30.05,29.96,5,2,14,0.01
2013-4-30,74.5,64.4,54.7,57.6,53.1,49.8,90,68,48,30.22,30.05,6,2,14,0.00
2013-5-1,78.6,65.2,55.0,55.6,49.8,42.5,75,59,38,30.35,30.22,6,2,14,0.00
2013-5-2,78.6,65.2,50.5,47.7,41.3,33.0,75,45,20,30.43,30.26,7,2,14,0.00
2013-5-3,79.9,67.1,53.2,48.4,42.6,37.4,63,42,24,30.31,30.19,7,3,14,0.00
2013-5-4,72.9,63.4,55.2,45.0,40.5,27.5,62,45,19,30.30,30.16,7,2,15,0.00
2013-5-5,74.8,64.1,49.8,47.6,42.4,36.6,76,48,26,30.24,30.10,6,2,61,0.00
2013-5-6,74.3,63.0,50.5,43.3,33.6,22.7,60,36,16,30.19,30.06,9,2,13,0.00
2013-5-7,76.6,64.3,50.0,53.9,48.2,39.2,79,57,43,30.15,30.04,6,2,14,0.00
2013-5-8,75.7,64.2,55.8,61.7,54.5,10.0,93,72,10,30.07,29.98,6,2,17,0.05
2013-5-9,76.6,63.1,53.8,60.2,54.7,49.4,97,77,41,29.99,29.92,6,2,14,0.01
2013-5-10,76.1,61.1,51.1,63.7,55.0,47.1,94,81,57,29.98,29.74,9,2,18,0.09
2013-5-11,60.1,52.8,47.7,58.5,48.4,-18.6,96,85,71,29.82,29.71,6,3,18,0.02
2013-5-12,50.7,43.8,37.4,47.9,35.1,29.5,91,72,51,30.00,29.73,10,5,22,0.11
2013-5-13,52.0,42.3,34.5,38.5,32.1,24.8,84,68,44,30.17,30.00,6,3,15,0.01
2013-5-14,59.0,48.4,34.0,40.5,32.8,25.9,88,58,31,30.18,29.93,5,2,13,0.00
2013-5-15,81.3,64.0,50.7,60.9,47.6,40.2,78,57,33,29.93,29.58,14,4,29,0.02
2013-5-16,75.6,63.6,50.5,51.7,41.9,24.1,80,50,18,30.07,29.42,12,3,21,0.02
2013-5-17,66.6,56.2,42.8,44.2,40.3,33.9,84,57,35,30.25,30.06,5,2,11,0.00
2013-5-18,75.9,63.3,51.3,47.2,42.4,37.6,65,48,29,30.27,30.14,6,2,14,0.00
2013-5-19,84.2,69.9,58.1,61.5,55.4,43.2,81,61,41,30.15,30.00,5,1,10,0.00
2013-5-20,88.9,74.9,61.2,69.2,62.4,54.5,89,67,43,30.07,29.89,11,1,24,0.05
2013-5-21,88.9,73.3,61.5,72.0,63.3,54.8,91,73,40,29.97,29.78,8,2,17,0.02
2013-5-22,88.9,74.6,62.6,67.9,61.8,57.4,90,67,41,29.83,29.68,6,2,18,0.00
2013-5-23,78.6,63.1,42.8,64.9,56.4,42.0,98,80,56,29.99,29.73,8,4,17,0.24
2013-5-24,52.3,44.2,39.6,42.0,36.3,32.8,99,75,50,30.28,29.99,7,4,18,0.09
2013-5-25,59.4,50.4,40.5,39.2,34.7,29.3,85,57,33,30.32,30.24,9,4,18,0.00
2013-5-26,64.6,53.8,42.4,39.5,32.3,21.9,78,48,20,30.29,30.22,8,3,18,0.00
2013-5-27,71.4,58.5,40.3,45.4,36.4,30.5,88,48,25,30.31,30.15,3,1,8,0.00
2013-5-28,64.6,58.4,52.9,63.4,53.7,37.9,99,86,52,30.18,29.93,8,1,21,1.06
2013-5-29,80.6,69.8,61.9,67.7,64.0,59.0,99,83,61,30.05,29.91,6,2,18,0.57
2013-5-30,87.6,75.3,63.1,70.9,64.7,58.2,90,71,50,30.15,30.04,6,2,100,0.00
2013-5-31,88.9,77.2,66.6,69.0,65.5,61.1,93,69,45,30.09,29.97,8,2,17,0.09
2013-6-1,86.2,73.5,65.7,71.7,67.2,64.1,96,82,57,29.99,29.81,9,3,30,0.51
2013-6-2,75.9,67.3,54.5,67.0,62.2,48.1,99,85,65,29.96,29.70,10,4,54,0.63
2013-6-3,66.7,55.4,47.3,51.9,45.1,40.9,84,69,47,30.08,29.95,6,3,13,0.00
2013-6-4,71.4,59.1,49.3,51.2,42.6,32.8,78,57,32,30.21,30.08,24,2,100,0.00
2013-6-5,72.3,60.5,51.6,49.9,44.5,36.0,83,58,35,30.25,30.09,7,2,14,0.00
2013-6-6,58.8,55.9,51.6,58.6,52.2,40.1,99,89,51,30.09,29.86,8,2,14,0.40
2013-6-7,59.9,55.7,51.6,57.7,54.6,51.3,99,96,89,29.91,29.86,5,2,9,0.02
2013-6-8,67.1,59.7,56.3,59.7,56.6,53.1,99,90,74,30.11,29.88,5,2,12,0.02
2013-6-9,79.0,65.3,52.7,59.4,54.8,50.9,96,72,42,30.24,30.11,4,1,10,0.00
2013-6-10,72.7,66.7,63.5,68.8,63.0,56.3,99,88,73,30.12,29.73,4,1,11,0.66
2013-6-11,73.8,66.2,59.2,64.1,60.4,55.3,99,83,61,29.90,29.71,6,3,15,0.07
2013-6-12,79.9,69.4,57.2,61.4,57.1,52.5,91,67,41,29.97,29.79,5,1,9,0.00
2013-6-13,67.8,62.5,57.4,61.2,58.4,54.0,99,87,65,29.84,29.56,9,3,18,0.54
2013-6-14,75.2,64.4,54.9,63.4,56.8,49.6,99,78,53,30.04,29.84,5,2,16,0.01
2013-6-15,77.4,65.9,52.5,58.1,52.5,45.5,87,64,39,30.11,29.98,5,2,12,0.00
2013-6-16,81.1,69.1,63.1,68.5,61.7,56.2,95,78,58,29.99,29.76,6,2,17,0.05
2013-6-17,81.5,71.4,60.3,65.6,59.0,54.1,94,68,42,29.98,29.85,6,2,14,0.00
2013-6-18,71.2,64.8,57.6,56.8,51.2,43.8,86,64,39,30.08,29.93,6,3,14,0.00
2013-6-19,70.3,63.4,54.9,52.0,44.9,38.6,85,54,32,30.22,30.07,5,2,13,0.00
2013-6-20,78.8,66.1,50.0,55.8,48.3,44.2,87,56,32,30.29,30.22,6,1,11,0.00
2013-6-21,85.1,71.3,54.0,58.5,52.0,44.0,89,54,26,30.30,30.19,3,1,9,0.00
2013-6-22,88.3,76.5,65.1,70.5,63.2,48.6,88,64,52,30.19,30.03,7,2,17,0.30
2013-6-23,89.4,79.0,68.0,73.3,68.2,61.9,97,72,42,30.11,30.01,7,2,17,0.06
2013-6-24,88.3,78.8,71.1,72.8,67.7,63.6,87,70,50,30.09,29.97,6,2,16,0.00
2013-6-25,83.8,75.7,70.2,72.3,67.8,64.4,85,77,62,29.99,29.83,5,2,14,0.00
2013-6-26,86.5,75.9,68.2,72.7,67.6,64.0,94,76,58,29.88,29.82,5,2,14,0.00
2013-6-27,77.7,70.9,66.7,70.6,66.4,62.8,96,86,73,29.85,29.68,3,1,10,0.31
2013-6-28,70.5,66.7,63.0,68.0,65.9,62.1,99,97,89,29.68,29.54,3,1,8,1.03
2013-6-29,80.6,68.1,61.5,67.6,62.8,60.2,99,84,59,29.75,29.53,5,2,11,0.05
2013-6-30,76.8,69.5,62.6,65.5,61.3,57.6,92,76,54,29.97,29.74,6,2,11,0.00
2013-7-1,71.2,67.4,61.5,62.5,59.9,56.2,88,77,65,30.11,29.97,7,4,15,0.00
2013-7-2,74.5,66.7,60.3,65.6,60.7,56.0,88,81,73,30.12,30.06,5,2,12,0.00
2013-7-3,83.8,74.0,63.3,74.0,67.9,60.7,95,82,68,30.18,30.10,4,1,10,0.12
2013-7-4,86.0,75.4,69.6,74.4,70.3,68.1,96,85,63,30.22,30.14,5,1,14,0.14
2013-7-5,85.3,76.1,70.7,73.6,70.0,67.0,96,82,61,30.17,30.09,5,2,15,0.11
2013-7-6,87.6,77.3,67.8,73.7,69.2,65.4,93,78,54,30.19,30.06,4,1,11,0.00
2013-7-7,81.9,75.0,71.2,72.6,69.5,66.6,95,83,64,30.10,29.98,6,2,17,0.09
2013-7-8,86.9,76.7,69.1,74.4,69.8,66.7,94,80,60,30.09,30.01,5,1,13,0.00
2013-7-9,82.4,75.2,70.7,73.4,70.7,68.6,94,86,72,30.07,29.93,3,1,11,0.02
2013-7-10,88.3,77.3,70.2,75.9,70.8,56.1,94,81,61,29.93,29.72,7,4,21,0.00
2013-7-11,79.5,71.1,61.5,61.4,57.6,55.3,83,63,45,30.06,29.89,6,2,14,0.00
2013-7-12,78.6,71.5,63.7,67.2,63.2,59.0,92,76,60,30.22,30.06,4,1,10,0.00
2013-7-13,85.3,74.2,62.2,68.9,64.3,57.9,93,72,52,30.28,30.19,5,2,11,0.00
2013-7-14,87.8,78.7,67.1,74.3,69.8,64.1,93,75,59,30.33,30.27,4,1,10,0.00
2013-7-15,91.0,81.8,71.8,75.1,66.7,48.2,92,64,24,30.34,30.27,4,1,11,0.00
2013-7-16,92.5,80.1,72.3,74.4,69.0,65.1,92,71,42,30.33,30.29,3,1,8,0.00
2013-7-17,95.0,85.4,76.3,79.3,75.3,72.0,93,73,54,30.27,30.12,4,1,7,0.00
2013-7-18,95.4,85.4,75.7,78.1,75.0,72.8,91,73,57,30.15,29.98,5,2,11,0.00
2013-7-19,92.1,82.7,69.3,77.9,73.7,65.1,98,76,55,29.99,29.75,11,5,24,3.25
2013-7-20,83.3,74.0,69.1,70.7,64.5,56.0,99,74,41,29.94,29.75,7,2,14,0.59
2013-7-21,79.0,72.1,66.2,64.3,60.9,57.8,83,68,51,30.04,29.94,5,2,12,0.00
2013-7-22,81.3,72.4,63.0,67.4,63.4,58.6,89,74,57,30.03,29.81,4,1,10,0.00
2013-7-23,84.9,73.7,63.7,71.6,66.5,55.3,93,79,57,29.81,29.67,6,2,17,0.20
2013-7-24,70.0,63.4,57.9,56.9,50.6,46.6,82,64,45,30.07,29.78,7,3,16,0.00
2013-7-25,77.7,65.8,54.5,60.2,53.3,48.2,92,66,37,30.16,30.07,6,1,12,0.00
2013-7-26,80.6,68.7,54.1,60.8,55.2,49.3,91,64,39,30.16,30.02,5,1,11,0.00
2013-7-27,77.4,69.8,64.2,66.7,62.8,53.3,92,79,63,30.02,29.82,5,1,11,0.11
2013-7-28,76.3,68.0,60.1,66.3,57.4,51.5,93,71,46,30.01,29.81,6,2,15,0.02
2013-7-29,73.0,65.4,58.8,61.5,57.3,54.3,91,76,59,30.19,29.99,5,1,11,0.01
2013-7-30,77.2,67.3,57.7,63.1,57.6,53.3,91,72,51,30.24,30.17,5,1,10,0.00
2013-7-31,80.4,70.1,59.4,66.7,61.3,56.0,93,75,50,30.19,29.96,4,1,8,0.00
2013-8-1,78.6,70.8,64.8,68.6,64.0,59.4,97,80,53,29.96,29.81,6,2,16,0.34
2013-8-2,80.8,69.1,58.5,66.1,60.5,55.9,95,76,47,29.92,29.85,8,2,17,0.06
2013-8-3,79.0,68.5,60.1,63.7,57.3,51.5,95,70,41,30.00,29.87,6,3,13,0.00
2013-8-4,73.2,65.0,56.5,59.0,52.7,43.8,90,66,41,30.12,29.99,6,2,15,0.00
2013-8-5,77.5,64.2,52.5,58.6,51.8,47.8,92,66,43,30.16,30.05,3,1,10,0.00
2013-8-6,81.5,70.2,57.6,62.0,57.5,50.2,89,66,40,30.08,29.99,5,1,10,0.00
2013-8-7,82.4,74.2,67.1,70.0,65.4,59.9,89,74,61,30.00,29.88,6,2,15,0.06
2013-8-8,80.6,73.2,66.4,73.2,69.1,65.5,98,88,70,30.01,29.91,6,1,14,0.81
2013-8-9,79.2,69.6,62.8,68.2,62.7,57.5,95,80,52,29.98,29.92,4,2,11,0.06
2013-8-10,74.3,66.5,58.8,60.7,53.8,48.1,86,65,46,30.14,29.97,5,2,13,0.00
2013-8-11,77.7,66.0,54.0,59.3,54.5,50.5,91,68,44,30.18,30.07,4,1,10,0.00
2013-8-12,76.6,69.1,59.7,67.2,61.4,55.2,90,77,61,30.09,29.88,6,1,14,0.00
2013-8-13,69.1,65.1,55.8,66.2,57.8,47.7,99,79,54,29.95,29.79,8,3,21,0.33
2013-8-14,70.2,61.3,52.7,54.1,49.1,42.8,88,67,39,30.14,29.93,7,3,19,0.00
2013-8-15,76.5,63.9,52.3,57.1,51.8,46.5,84,66,45,30.17,30.10,6,2,17,0.00
2013-8-16,78.1,65.5,54.3,62.1,55.0,48.3,91,70,48,30.25,30.15,4,1,9,0.00
2013-8-17,81.0,68.6,55.2,62.0,57.0,46.2,92,69,30,30.33,30.24,5,1,12,0.00
2013-8-18,82.8,70.6,59.9,64.9,58.8,54.6,88,68,42,30.28,30.14,3,1,8,0.00
2013-8-19,82.8,70.4,59.5,64.9,60.2,55.5,94,72,48,30.16,30.07,4,1,8,0.00
2013-8-20,84.2,73.0,63.1,70.2,64.1,58.1,96,75,52,30.17,30.09,5,2,14,0.00
2013-8-21,86.5,75.2,65.8,71.0,65.6,62.8,93,74,50,30.20,30.06,5,1,15,0.00
2013-8-22,83.5,75.3,67.8,73.8,64.9,53.2,94,72,48,30.07,29.96,7,2,16,0.00
2013-8-23,74.8,67.7,59.0,60.7,54.8,49.3,89,65,42,30.23,30.04,6,2,13,0.00
2013-8-24,77.9,66.3,54.3,58.5,53.6,50.1,89,66,40,30.39,30.23,6,1,11,0.00
2013-8-25,82.2,70.5,56.7,64.2,57.1,51.3,90,65,40,30.36,30.16,5,2,17,0.00
2013-8-26,80.4,72.2,68.5,74.0,68.6,64.2,98,89,75,30.18,29.98,5,2,14,0.53
2013-8-27,84.6,73.8,65.5,76.2,70.7,65.2,99,90,71,29.99,29.90,3,1,10,0.79
2013-8-28,80.6,74.0,69.6,73.2,70.8,68.4,98,90,73,30.01,29.89,5,2,13,0.01
2013-8-29,82.9,74.2,65.7,73.0,67.5,63.6,97,81,53,30.09,30.00,4,1,11,0.00
2013-8-30,82.4,74.9,67.3,74.4,69.0,64.3,97,83,64,30.04,29.78,4,2,12,0.07
2013-8-31,79.7,73.9,70.0,70.7,68.9,66.5,94,85,69,29.88,29.75,5,2,12,0.00
2013-9-1,82.2,73.9,68.0,72.4,69.0,65.9,95,85,67,29.88,29.79,4,1,9,0.08
2013-9-2,81.5,71.0,64.6,73.1,65.6,55.1,97,84,63,29.85,29.75,8,2,17,0.01
2013-9-3,68.9,63.6,57.0,59.6,56.9,52.4,86,79,69,30.00,29.84,5,2,13,0.00
2013-9-4,77.9,66.6,55.9,64.1,58.3,51.7,92,76,51,30.04,29.98,6,2,16,0.02
2013-9-5,65.1,59.4,51.3,60.2,46.5,35.8,91,65,37,30.28,30.03,6,2,14,0.00
2013-9-6,70.2,57.9,44.8,52.2,46.5,40.1,91,68,43,30.33,30.12,4,1,13,0.00
2013-9-7,67.1,62.9,57.4,65.7,59.0,51.1,98,87,75,30.11,29.91,5,1,14,0.26
2013-9-8,67.3,63.2,53.6,66.5,53.4,45.9,98,72,52,30.15,29.91,7,3,16,0.00
2013-9-9,73.0,62.1,49.6,65.3,54.1,45.9,91,76,59,30.16,29.97,3,1,9,0.00
2013-9-10,86.5,77.9,68.5,74.8,70.7,65.5,92,79,62,30.05,29.92,9,4,17,0.05
2013-9-11,86.2,79.0,71.4,73.7,71.1,64.7,90,77,55,30.07,29.92,7,3,20,0.05
2013-9-12,75.7,69.5,62.2,69.5,65.2,54.8,94,86,73,29.98,29.79,6,2,14,0.15
2013-9-13,62.2,54.7,51.3,56.0,47.9,41.2,85,78,68,30.09,29.83,6,3,16,0.00
2013-9-14,62.6,54.2,47.3,48.7,42.2,28.9,84,65,31,30.17,30.07,6,2,11,0.00
2013-9-15,69.1,58.6,49.6,58.0,51.8,45.7,93,79,61,30.17,30.09,6,2,17,0.11
2013-9-16,55.6,51.9,44.1,54.5,47.6,40.4,96,86,64,30.41,30.10,6,2,16,0.02
2013-9-17,63.9,51.6,39.4,50.4,43.2,37.3,95,75,46,30.50,30.30,3,1,10,0.00
2013-9-18,71.8,58.6,47.3,52.8,47.8,43.1,88,70,38,30.30,30.13,4,1,11,0.00
2013-9-19,74.8,63.6,53.6,63.2,56.4,48.1,91,78,60,30.15,30.03,4,1,11,0.00
2013-9-20,79.5,68.9,58.5,68.6,63.4,54.2,95,83,67,30.04,29.76,4,1,12,0.00
2013-9-21,73.2,62.3,51.6,67.5,60.9,50.1,99,95,80,29.81,29.65,10,2,24,1.72
2013-9-22,54.7,51.6,49.1,50.8,45.4,40.5,97,80,63,30.08,29.81,6,2,14,0.00
2013-9-23,58.3,52.4,46.4,45.8,42.5,39.7,89,70,51,30.20,30.08,5,1,12,0.00
2013-9-24,61.0,51.5,41.7,50.7,43.3,34.4,96,76,38,30.19,30.05,5,1,11,0.00
2013-9-25,66.9,54.1,42.6,55.1,45.6,39.4,96,75,43,30.06,29.99,5,1,9,0.00
2013-9-26,68.0,56.5,45.0,54.3,48.2,41.6,95,75,54,30.19,30.03,4,1,11,0.00
2013-9-27,67.3,59.0,52.0,57.6,52.5,48.8,92,79,68,30.30,30.19,4,2,10,0.00
2013-9-28,73.4,61.5,52.3,58.8,54.0,49.8,94,78,51,30.30,30.17,3,1,8,0.00
2013-9-29,74.1,63.2,54.1,58.7,54.2,49.1,86,73,54,30.17,30.02,5,1,13,0.00
2013-9-30,73.0,65.1,60.6,63.1,60.0,55.9,91,84,67,30.03,29.98,6,2,13,0.01
2013-10-1,72.9,64.6,56.7,63.3,59.6,54.7,95,84,67,30.06,29.95,6,2,16,0.00
2013-10-2,74.8,67.6,59.2,63.5,59.3,43.0,92,76,43,30.13,29.96,6,2,11,0.00
2013-10-3,72.1,61.4,48.6,55.1,47.9,40.2,91,63,40,30.16,30.03,3,1,8,0.00
2013-10-4,69.1,65.3,62.1,68.2,63.9,56.2,98,95,81,30.10,30.01,2,0,5,0.54
2013-10-5,63.5,61.2,59.0,62.1,59.8,56.9,99,95,88,30.13,30.02,4,2,10,0.27
2013-10-6,78.1,68.1,58.8,71.6,64.7,57.4,99,90,74,30.03,29.70,4,2,13,0.28
2013-10-7,72.1,59.2,49.8,64.2,52.5,41.9,96,79,53,30.09,29.68,9,3,26,0.41
2013-10-8,62.4,53.3,44.6,49.9,46.5,42.1,95,79,57,30.36,30.09,4,1,8,0.00
2013-10-9,65.1,54.4,44.4,50.2,46.2,41.4,94,75,45,30.42,30.29,4,1,8,0.00
2013-10-10,65.5,53.9,44.6,56.5,49.0,41.6,96,84,58,30.30,30.17,4,1,11,0.00
2013-10-11,66.6,55.7,46.9,57.5,48.9,42.9,97,79,53,30.21,30.14,4,1,10,0.00
2013-10-12,72.3,58.7,45.7,56.0,47.2,40.8,93,68,33,30.21,30.13,4,1,10,0.00
2013-10-13,68.5,62.7,58.6,60.6,54.2,43.6,95,75,53,30.31,30.17,4,1,11,0.38
2013-10-14,60.3,55.6,49.3,57.6,48.2,42.1,94,77,52,30.39,30.31,4,2,12,0.00
2013-10-15,68.0,57.6,46.4,57.3,51.5,43.0,92,81,65,30.32,29.95,4,1,11,0.00
2013-10-16,68.2,62.1,52.5,62.0,58.3,48.3,96,87,77,29.95,29.77,7,2,21,0.37
2013-10-17,61.7,54.6,50.7,52.5,50.2,47.0,96,85,68,29.91,29.72,3,1,11,0.35
2013-10-18,58.3,51.8,45.9,49.3,45.5,40.9,96,80,54,29.93,29.76,7,2,17,0.01
2013-10-19,54.1,49.7,42.4,51.3,46.3,41.4,96,88,79,29.90,29.70,6,1,12,0.33
2013-10-20,55.8,46.3,38.7,46.4,41.6,36.8,96,84,59,29.99,29.81,5,2,14,0.01
2013-10-21,62.4,54.9,46.8,48.1,45.5,43.0,91,72,49,29.98,29.80,9,3,24,0.24
2013-10-22,50.2,43.6,39.4,48.0,37.0,29.7,93,78,54,29.89,29.79,8,2,18,0.09
2013-10-23,46.0,41.9,36.1,39.3,34.8,29.2,86,76,65,29.86,29.75,8,1,17,0.04
2013-10-24,46.9,39.2,33.4,36.4,32.8,28.2,86,78,61,30.07,29.83,6,3,17,0.00
2013-10-25,49.3,41.5,36.3,40.1,35.2,32.5,93,79,57,30.22,30.06,7,2,20,0.00
2013-10-26,45.0,43.1,41.5,41.7,37.0,30.1,94,80,61,30.14,29.79,11,5,28,0.44
2013-10-27,47.1,41.2,36.0,40.1,35.9,32.8,94,82,68,30.07,29.85,6,2,14,0.01
2013-10-28,45.3,41.3,32.7,38.4,30.2,19.5,84,66,40,30.42,30.04,7,2,16,0.00
2013-10-29,45.3,39.2,31.6,34.7,28.4,23.0,75,65,47,30.48,30.31,4,1,10,0.00
2013-10-30,54.9,46.2,39.6,42.5,38.7,34.9,88,76,53,30.31,30.09,4,1,10,0.01
2013-10-31,65.1,57.0,46.0,59.5,52.8,39.7,96,86,70,30.09,29.35,11,3,24,0.71
2013-11-1,61.5,54.8,48.2,58.4,48.5,42.3,94,80,65,29.70,29.17,12,6,32,0.28
2013-11-2,48.4,44.3,37.2,44.5,40.4,30.0,93,86,75,30.06,29.64,7,3,15,0.19
2013-11-3,37.2,33.3,27.0,30.0,21.5,13.2,75,62,42,30.55,30.07,5,2,14,0.00
2013-11-4,42.4,34.2,25.2,26.1,20.9,17.6,81,59,42,30.64,30.43,6,2,12,0.00
2013-11-5,56.5,47.0,36.5,38.2,32.2,19.7,68,57,48,30.46,30.32,4,2,12,0.00
2013-11-6,63.5,55.0,48.0,55.0,44.0,32.6,93,67,53,30.32,29.82,7,3,21,0.33
2013-11-7,55.0,42.9,38.1,52.8,36.2,29.6,92,78,66,30.05,29.83,8,4,19,0.08
2013-11-8,42.4,38.4,34.2,32.7,29.4,27.1,82,70,61,30.26,30.01,8,3,19,0.01
2013-11-9,50.9,43.6,33.4,45.5,33.1,24.7,85,67,50,30.25,29.81,7,2,20,0.11
2013-11-10,48.2,43.1,37.4,40.8,33.8,28.0,78,70,60,30.22,29.82,11,5,27,0.06
2013-11-11,45.0,37.5,31.5,38.7,30.8,19.3,88,77,59,30.22,29.96,9,4,21,0.20
2013-11-12,32.7,29.7,26.8,20.8,16.4,10.4,70,58,45,30.43,30.17,10,5,20,0.00
2013-11-13,39.2,32.6,24.4,28.5,20.5,11.4,74,61,43,30.45,30.09,11,4,27,0.02
2013-11-14,46.9,42.8,38.1,33.3,28.5,25.4,70,57,43,30.13,30.01,12,7,27,0.00
2013-11-15,50.9,46.1,43.2,37.0,31.8,27.1,73,58,45,30.13,30.05,10,4,21,0.00
2013-11-16,56.3,49.5,39.2,41.9,37.6,30.8,80,64,56,30.24,29.99,5,2,12,0.00
2013-11-17,61.9,57.2,52.7,55.0,50.2,41.8,89,78,65,29.99,29.35,12,3,30,0.37
2013-11-18,54.0,44.4,36.3,44.3,33.9,24.9,81,67,58,29.99,29.40,13,6,31,0.01
2013-11-19,37.9,34.6,27.5,25.3,21.1,17.3,68,58,48,30.48,29.99,8,4,20,0.00
2013-11-20,41.4,31.9,23.2,22.9,18.4,14.2,73,58,42,30.57,30.41,6,2,14,0.00
2013-11-21,44.4,39.9,32.7,37.3,27.3,13.2,86,62,41,30.41,30.25,4,2,12,0.15
2013-11-22,46.6,42.1,32.4,44.7,38.6,24.0,93,87,69,30.25,30.04,10,3,24,0.24
2013-11-23,32.5,27.8,19.4,24.7,16.1,2.3,78,62,43,30.27,30.08,14,6,27,0.00
2013-11-24,25.7,20.3,16.2,10.3,5.9,1.7,62,53,36,30.46,30.27,8,4,21,0.00
2013-11-25,35.6,28.9,18.9,27.5,14.4,4.0,79,55,42,30.41,30.10,9,5,30,0.00
2013-11-26,34.5,33.3,32.4,29.7,28.5,26.9,85,82,80,30.15,29.85,3,1,11,0.01
2013-11-27,33.1,30.4,24.3,29.2,22.1,11.6,86,72,51,30.00,29.72,10,2,21,0.00
2013-11-28,28.8,24.2,18.7,16.9,12.6,7.5,72,61,51,30.43,30.00,8,1,17,0.00
2013-11-29,27.1,23.2,17.6,17.5,12.8,5.4,75,64,52,30.73,30.43,4,1,7,0.00
2013-11-30,36.1,28.7,19.9,24.7,16.9,8.7,69,61,54,30.69,30.17,5,2,13,0.01
2013-12-1,39.9,36.7,33.8,32.7,29.1,24.7,80,74,69,30.18,29.97,3,1,8,0.25
2013-12-2,36.9,34.2,28.2,31.4,28.7,21.3,83,80,75,29.97,29.90,3,0,7,0.00
2013-12-3,36.9,30.5,23.2,26.1,22.1,16.2,83,71,53,30.02,29.94,5,1,11,0.00
2013-12-4,46.8,39.2,34.0,40.9,33.5,25.9,87,80,71,30.03,29.84,5,2,12,0.04
2013-12-5,59.2,50.3,38.5,51.8,41.5,28.7,80,72,54,30.07,29.73,8,4,17,0.00
2013-12-6,38.5,33.7,30.2,30.6,21.9,18.0,76,62,55,30.29,30.05,5,3,11,0.00
2013-12-7,30.2,26.4,20.3,18.6,12.6,7.2,63,56,46,30.59,30.29,7,3,100,0.00
2013-12-8,28.2,24.0,17.6,17.1,10.0,5.4,65,55,43,30.59,30.16,5,2,17,0.00
2013-12-9,36.9,31.9,27.3,32.6,24.8,-20.6,85,75,60,30.16,29.86,8,4,21,0.04
2013-12-10,27.5,23.0,19.4,15.5,8.4,3.0,65,53,42,30.10,29.92,7,4,20,0.00
2013-12-11,26.2,21.2,15.3,12.9,7.4,1.0,65,55,49,30.32,30.10,8,4,17,0.00
2013-12-12,20.5,16.0,10.4,10.6,1.8,-2.4,66,53,41,30.36,30.09,7,4,20,0.00
2013-12-13,26.8,19.3,14.9,15.6,8.0,2.3,74,61,48,30.41,30.07,6,3,98,0.00
2013-12-14,19.0,15.6,13.6,11.6,6.1,0.6,72,65,53,30.42,29.74,8,5,21,0.00
2013-12-15,25.2,20.8,15.6,16.7,11.9,2.6,78,68,55,29.91,29.67,8,3,17,0.00
2013-12-16,19.0,13.0,7.9,3.6,-0.2,-5.6,62,55,48,30.18,29.91,4,2,11,0.00
2013-12-17,28.2,20.7,10.0,21.0,11.6,-1.7,74,67,58,30.14,29.92,4,2,10,0.00
2013-12-18,32.2,27.6,22.8,21.8,18.4,15.0,73,68,62,30.09,29.95,8,3,18,0.00
2013-12-19,40.1,35.2,29.3,30.4,25.5,18.0,79,68,60,30.06,27.77,7,3,17,0.11
2013-12-20,39.6,36.5,34.3,37.2,33.0,28.9,92,87,79,30.71,29.79,5,1,10,0.46
2013-12-21,46.4,36.1,31.5,44.5,33.5,28.9,94,90,87,29.90,29.73,8,2,17,0.46
2013-12-22,36.0,33.0,31.1,33.0,30.2,28.2,90,89,87,29.98,29.62,2,0,5,0.28
2013-12-23,36.0,31.7,24.3,33.0,27.6,-56.3,90,85,68,30.30,29.97,5,2,14,0.00
2013-12-24,25.7,19.7,8.6,18.8,11.3,-2.7,79,69,59,30.53,30.22,6,2,12,0.00
2013-12-25,26.6,15.4,3.2,16.5,5.3,-7.1,71,63,59,30.53,30.18,4,1,10,0.00
2013-12-26,32.2,27.4,17.8,25.0,18.4,5.6,82,69,58,30.30,30.06,5,2,16,0.00
2013-12-27,36.5,28.5,17.8,29.6,20.7,5.9,83,73,59,30.30,30.06,25,2,25,0.00
2013-12-28,41.4,37.8,35.2,32.5,30.1,27.5,81,73,70,30.12,29.94,10,4,24,0.01
2013-12-29,43.7,38.9,26.2,33.5,28.5,14.1,77,66,52,29.95,29.65,12,4,99,0.00
2013-12-30,26.1,19.8,17.6,14.1,5.4,0.6,64,53,44,30.24,29.84,11,4,23,0.00
2013-12-31,22.5,18.0,12.7,14.4,5.1,-2.3,73,57,47,30.27,29.97,8,3,26,0.00
2014-1-1,21.2,15.5,11.1,6.3,2.6,-2.4,66,56,46,30.42,30.26,7,3,14,0.00
2014-1-2,14.4,14.2,13.8,5.5,5.1,4.6,67,66,66,30.32,30.27,6,5,12,0.00